Hettinger, ND

11:41 AM MST on December 10, 2016 (GMT -0700)
Hettinger Municipal

Weather History for KHEI - May, 2013

Change the Weather History Date:

Sunday, May 26, 2013

  Actual Average Record
Temperature  
Mean Temperature 62 °F -  
Max Temperature 74 °F 69 °F 89 °F (2006)
Min Temperature 50 °F 43 °F 32 °F (2001)
Degree Days  
Heating Degree Days 2    
Cooling Degree Days 0 0  
Month to date cooling degree days 7 0  
Year to date cooling degree days 7 0  
Growing Degree Days 12 (Base 50)    
Moisture  
Dew Point 55 °F    
Average Humidity 77    
Maximum Humidity 96    
Minimum Humidity 57    
Precipitation  
Precipitation 0.52 in 0.07 in 0.93 in (2000)
Month to date precipitation 5.65 1.97  
Year to date precipitation 6.88 4.93  
Sea Level Pressure  
Sea Level Pressure 29.90 in    
Wind  
Wind Speed - (North)    
Max Wind Speed -    
Max Gust Speed -    
Visibility 10 miles    
Events Rain , Thunderstorm    
T = Trace of Precipitation, MM = Missing Value Source: NWS Daily Summary

Daily Weather History Graph

Daily Weather History Graph

Search for Another Location

Airport or City:

Trip Planner

Search our weather history database for the weather conditions in past years. The results will help you decide how hot, cold, wet, or windy it might be!

Date:

Astronomy

May. 26, 2013 Rise Set
Actual Time 5:07 AM MDT 8:28 PM MDT
Civil Twilight 4:30 AM MDT 9:05 PM MDT
Nautical Twilight 3:42 AM MDT 9:53 PM MDT
Astronomical Twilight 2:41 AM MDT 10:55 PM MDT
Moon 10:16 PM MDT (5/26) 6:39 AM MDT (5/26)
Length of Visible Light 16h 34m
Length of Day
15h 21m
Waning Gibbous, 96% of the Moon is Illuminated
May 26
Waning Gibbous
May 31
Last Quarter
Jun 8
New
Jun 16
First Quarter
Jun 23
Full

Hourly Weather History & Observations

Time (MDT) Temp. Dew Point Humidity Pressure Visibility Wind Dir Wind Speed Gust Speed Precip Events Conditions
12:53 AM 57.0 °F 52.0 °F 83% 29.82 in 10.0 mi North - - N/A   Clear
1:53 AM 57.0 °F 51.1 °F 81% 29.82 in 10.0 mi North - - N/A   Mostly Cloudy
2:43 AM 57.2 °F 51.8 °F 82% 29.91 in 10.0 mi North - - N/A Thunderstorm Overcast
2:53 AM 57.9 °F 51.1 °F 78% 29.91 in 10.0 mi North - - N/A Thunderstorm Overcast
3:22 AM 55.4 °F 51.8 °F 88% 29.97 in 2.5 mi North - - 0.30 in Rain , Thunderstorm Heavy Thunderstorms and Rain
3:41 AM 55.4 °F 51.8 °F 88% 29.95 in 6.0 mi North - - 0.49 in Rain , Thunderstorm Light Rain
3:53 AM 55.9 °F 51.1 °F 84% 29.92 in 8.0 mi North - - 0.52 in Rain , Thunderstorm Light Thunderstorms and Rain
4:05 AM 55.4 °F 51.8 °F 88% 29.95 in 10.0 mi North - - 0.00 in   Mostly Cloudy
4:53 AM 55.0 °F 51.1 °F 86% 29.97 in 10.0 mi North - - 0.00 in   Mostly Cloudy
5:53 AM 52.0 °F 50.0 °F 93% 29.98 in 10.0 mi North - - N/A   Scattered Clouds
6:53 AM 54.0 °F 51.1 °F 90% 29.92 in 10.0 mi North - - N/A   Clear
7:53 AM 59.0 °F 54.0 °F 83% 29.95 in 10.0 mi North - - N/A   Clear
8:53 AM 62.1 °F 54.0 °F 75% 29.93 in 10.0 mi North - - N/A   Clear
9:53 AM 64.9 °F 55.0 °F 70% 29.92 in 10.0 mi North - - N/A   Clear
10:53 AM 68.0 °F 55.0 °F 63% 29.90 in 10.0 mi North - - N/A   Clear
11:53 AM 69.1 °F 55.0 °F 61% 29.92 in 10.0 mi North - - N/A   Partly Cloudy
12:53 PM 71.1 °F 55.9 °F 59% 29.92 in 10.0 mi North - - N/A   Mostly Cloudy
1:53 PM 71.1 °F 57.0 °F 61% 29.91 in 10.0 mi North - - N/A   Mostly Cloudy
2:53 PM 72.0 °F 55.9 °F 57% 29.91 in 10.0 mi North - - N/A   Partly Cloudy
3:53 PM 72.0 °F 57.0 °F 59% 29.90 in 10.0 mi North - - N/A   Clear
4:53 PM 73.9 °F 57.9 °F 57% 29.89 in 10.0 mi North - - N/A   Mostly Cloudy
5:53 PM 72.0 °F 57.9 °F 61% 29.88 in 10.0 mi North - - N/A   Mostly Cloudy
6:53 PM 72.0 °F 60.1 °F 66% 29.86 in 10.0 mi North - - N/A   Scattered Clouds
7:53 PM 66.9 °F 59.0 °F 76% 29.86 in 10.0 mi North - - N/A   Partly Cloudy
8:29 PM 64.4 °F 59.0 °F 83% 29.89 in 10.0 mi North - - N/A   Mostly Cloudy
8:53 PM 63.0 °F 59.0 °F 87% 29.87 in 10.0 mi North - - N/A   Overcast
9:51 PM 60.8 °F 57.2 °F 88% 29.90 in 10.0 mi North - - N/A   Overcast
9:53 PM 61.0 °F 57.9 °F 90% 29.87 in 10.0 mi North - - N/A   Overcast
10:53 PM 60.1 °F 57.0 °F 90% 29.88 in 10.0 mi North - - N/A   Overcast
11:53 PM 59.0 °F 55.9 °F 90% 29.85 in 9.0 mi North - - N/A   Overcast